Fremont, NE

9:50 AM CST on November 20, 2017 (GMT -0600)
Fremont Municipal

Weather History for KFET - April, 2013

Change the Weather History Date:

Thursday, April 18, 2013

  Actual Average Record
Temperature  
Mean Temperature 34 °F -  
Max Temperature 36 °F 66 °F 89 °F (1985)
Min Temperature 31 °F 41 °F 20 °F (1953)
Degree Days  
Heating Degree Days 32    
Moisture  
Dew Point 30 °F    
Average Humidity 88    
Maximum Humidity 97    
Minimum Humidity 77    
Precipitation  
Precipitation 0.25 in - - ()
Sea Level Pressure  
Sea Level Pressure 29.82 in    
Wind  
Wind Speed 20 mph (NW)    
Max Wind Speed 33 mph    
Max Gust Speed 43 mph    
Visibility 6 miles    
Events Rain , Snow , Thunderstorm    
Averages and records for this station are not official NWS values.
T = Trace of Precipitation, MM = Missing Value Source: NWS Daily Summary

Daily Weather History Graph

Daily Weather History Graph

Search for Another Location

Airport or City:

Trip Planner

Search our weather history database for the weather conditions in past years. The results will help you decide how hot, cold, wet, or windy it might be!

Date:

Astronomy

Apr. 18, 2013 Rise Set
Actual Time 6:41 AM CDT 8:10 PM CDT
Civil Twilight 6:12 AM CDT 8:39 PM CDT
Nautical Twilight 5:37 AM CDT 9:14 PM CDT
Astronomical Twilight 5:00 AM CDT 9:51 PM CDT
Moon 12:53 PM CDT (4/18) 2:26 AM CDT (4/18)
Length of Visible Light 14h 26m
Length of Day
13h 28m
First Quarter, 52% of the Moon is Illuminated
Apr 18
First Quarter
Apr 25
Full
May 2
Last Quarter
May 9
New
May 17
First Quarter

Hourly Weather History & Observations

Time (CDT) Temp. Windchill Dew Point Humidity Pressure Visibility Wind Dir Wind Speed Gust Speed Precip Events Conditions
12:15 AM 36.5 °F 28.7 °F 33.8 °F 90% 29.85 in 10.0 mi North 11.5 mph 23.0 mph N/A   Overcast
12:35 AM 35.8 °F 26.5 °F 33.8 °F 92% 29.81 in 7.0 mi North 15.0 mph 26.5 mph N/A Rain , Thunderstorm Light Thunderstorms and Rain
12:55 AM 35.6 °F 24.8 °F 33.8 °F 93% 29.84 in 4.0 mi NNW 19.6 mph 27.6 mph 0.04 in Snow Light Snow
1:15 AM 35.6 °F 25.5 °F 33.8 °F 93% 29.86 in 5.0 mi NNW 17.3 mph 32.2 mph 0.04 in Snow Light Snow
1:35 AM 34.9 °F 26.6 °F 33.1 °F 93% 29.85 in 5.0 mi North 11.5 mph 21.9 mph 0.06 in Rain Light Rain
1:55 AM 34.0 °F 25.0 °F 32.5 °F 94% 29.82 in 5.0 mi North 12.7 mph 18.4 mph 0.08 in Snow Light Snow
2:15 AM 34.2 °F 24.0 °F 32.7 °F 94% 29.82 in 7.0 mi NNW 16.1 mph 23.0 mph 0.02 in Snow Light Snow
2:35 AM 33.8 °F 25.3 °F 32.4 °F 94% 29.84 in 5.0 mi NNW 11.5 mph 18.4 mph 0.04 in Snow Light Snow
3:15 AM 33.8 °F 24.3 °F 32.4 °F 94% 29.79 in 7.0 mi North 13.8 mph 18.4 mph N/A Rain Light Rain
3:35 AM 33.8 °F 23.9 °F 32.2 °F 94% 29.77 in 10.0 mi NNW 15.0 mph 21.9 mph 0.01 in   Overcast
3:55 AM 33.8 °F 22.8 °F 32.0 °F 93% 29.77 in 10.0 mi NNW 18.4 mph 24.2 mph 0.01 in   Overcast
4:15 AM 34.0 °F 23.0 °F 32.0 °F 92% 29.74 in 10.0 mi NNW 18.4 mph 27.6 mph N/A   Overcast
4:35 AM 34.0 °F 23.4 °F 32.0 °F 92% 29.75 in 10.0 mi NNW 17.3 mph 26.5 mph N/A Snow Light Snow
5:35 AM 34.0 °F 23.4 °F 32.0 °F 92% 29.76 in 10.0 mi NNW 17.3 mph 23.0 mph N/A   Light Drizzle
5:55 AM 34.0 °F 23.4 °F 32.0 °F 92% 29.76 in 7.0 mi NNW 17.3 mph 24.2 mph N/A Rain Light Rain
6:15 AM 33.8 °F 23.2 °F 32.0 °F 93% 29.74 in 4.0 mi NNW 17.3 mph 25.3 mph N/A Snow Light Snow
6:35 AM 33.3 °F 22.8 °F 32.0 °F 95% 29.73 in 1.8 mi NW 16.1 mph 23.0 mph 0.01 in Snow Light Snow
6:55 AM 32.4 °F 20.9 °F 31.6 °F 97% 29.75 in 1.5 mi NW 18.4 mph 27.6 mph 0.01 in Snow Light Snow
7:15 AM 32.2 °F 20.4 °F 31.1 °F 96% 29.77 in 2.0 mi NW 19.6 mph - N/A Snow Light Snow
7:35 AM 32.2 °F 19.7 °F 31.3 °F 96% 29.79 in 1.2 mi NW 21.9 mph 25.3 mph N/A Snow Light Snow
7:55 AM 32.4 °F 20.9 °F 31.1 °F 95% 29.78 in 1.8 mi NW 18.4 mph 26.5 mph N/A   Overcast
8:15 AM 32.4 °F 20.3 °F 31.1 °F 95% 29.81 in 1.8 mi NW 20.7 mph 26.5 mph 0.01 in   Overcast
8:35 AM 32.0 °F 19.5 °F 30.7 °F 95% 29.79 in 2.0 mi NW 21.9 mph 27.6 mph 0.02 in Snow Light Snow
8:55 AM 32.0 °F 18.6 °F 30.2 °F 93% 29.78 in 0.8 mi NW 25.3 mph 33.4 mph 0.03 in Snow Light Snow
9:15 AM 31.8 °F 18.7 °F 30.2 °F 94% 29.79 in 0.5 mi NW 24.2 mph 27.6 mph 0.02 in Snow Snow
9:35 AM 31.8 °F 19.0 °F 30.2 °F 94% 29.78 in 0.8 mi NW 23.0 mph 28.8 mph 0.02 in Snow Light Snow
9:55 AM 32.0 °F 18.6 °F 30.2 °F 93% 29.78 in 0.8 mi NW 25.3 mph 32.2 mph 0.03 in Snow Light Snow
10:15 AM 32.0 °F 18.9 °F 29.8 °F 92% 29.79 in 1.0 mi NW 24.2 mph 29.9 mph N/A Snow Light Snow
10:35 AM 32.0 °F 18.6 °F 30.2 °F 93% 29.79 in 1.0 mi NW 25.3 mph - N/A Snow Light Snow
10:55 AM 32.0 °F 19.5 °F 30.2 °F 93% 29.79 in 0.8 mi NW 21.9 mph 35.7 mph 0.01 in Snow Light Snow
11:15 AM 32.0 °F 19.8 °F 30.4 °F 94% 29.79 in 1.0 mi NW 20.7 mph 31.1 mph N/A Snow Light Snow
11:35 AM 32.5 °F 20.2 °F 30.0 °F 90% 29.79 in 4.0 mi NW 21.9 mph 31.1 mph N/A Snow Light Snow
11:55 AM 32.5 °F 19.1 °F 30.2 °F 91% 29.80 in 1.8 mi NW 26.5 mph 31.1 mph N/A Snow Light Snow
12:15 PM 32.9 °F 20.1 °F 30.2 °F 90% 29.79 in 2.0 mi NW 24.2 mph 34.5 mph N/A Snow Light Snow
12:35 PM 32.9 °F 19.1 °F 30.4 °F 90% 29.79 in 2.0 mi NW 28.8 mph 34.5 mph N/A Snow Light Snow
12:55 PM 33.1 °F 19.3 °F 30.4 °F 90% 29.79 in 7.0 mi NW 28.8 mph 39.1 mph N/A Snow Light Snow
1:15 PM 33.8 °F 19.9 °F 30.7 °F 89% 29.79 in 3.0 mi NW 31.1 mph 39.1 mph N/A Snow Light Snow
1:35 PM 34.5 °F 21.3 °F 31.5 °F 89% 29.79 in 3.0 mi NW 28.8 mph 38.0 mph N/A Snow Light Snow
1:55 PM 34.7 °F 20.7 °F 31.1 °F 87% 29.80 in 10.0 mi NW 33.4 mph 42.6 mph N/A Snow Light Snow
2:15 PM 35.2 °F 22.0 °F 31.1 °F 85% 29.81 in 10.0 mi NW 29.9 mph 39.1 mph N/A Snow Light Snow
2:35 PM 35.6 °F 22.7 °F 30.7 °F 82% 29.81 in 10.0 mi WNW 28.8 mph 38.0 mph N/A Rain Light Rain
2:55 PM 35.8 °F 22.8 °F 31.1 °F 83% 29.82 in 7.0 mi NW 29.9 mph 35.7 mph N/A Snow Light Snow
3:35 PM 36.5 °F 24.2 °F 31.3 °F 81% 29.83 in 10.0 mi NW 27.6 mph 36.8 mph N/A Rain Light Rain
3:55 PM 36.1 °F 23.5 °F 31.3 °F 83% 29.83 in 5.0 mi NW 28.8 mph 35.7 mph N/A Rain Light Rain
4:15 PM 35.6 °F 22.7 °F 30.0 °F 80% 29.84 in 7.0 mi WNW 28.8 mph 35.7 mph N/A Rain Light Rain
4:35 PM 34.9 °F 21.1 °F 29.3 °F 80% 29.84 in 5.0 mi WNW 32.2 mph 35.7 mph N/A Rain Light Rain
4:55 PM 34.9 °F 22.0 °F 30.6 °F 84% 29.84 in 3.0 mi NW 27.6 mph 36.8 mph N/A Rain Light Rain
5:15 PM 35.4 °F 22.3 °F 30.0 °F 81% 29.84 in 7.0 mi NW 29.9 mph 39.1 mph N/A   Light Drizzle
5:35 PM 35.1 °F 22.5 °F 29.8 °F 81% 29.85 in 10.0 mi WNW 26.5 mph 35.7 mph N/A   Overcast
5:55 PM 34.9 °F 22.5 °F 29.3 °F 80% 29.86 in 10.0 mi WNW 25.3 mph 39.1 mph N/A   Overcast
6:15 PM 34.7 °F 21.8 °F 28.8 °F 79% 29.86 in 10.0 mi WNW 27.6 mph 34.5 mph N/A   Overcast
6:35 PM 34.7 °F 22.0 °F 28.2 °F 77% 29.87 in 10.0 mi NW 26.5 mph 38.0 mph N/A   Overcast
6:55 PM 34.2 °F 22.6 °F 28.6 °F 80% 29.88 in 10.0 mi WNW 20.7 mph 34.5 mph N/A   Overcast
7:15 PM 33.8 °F 20.3 °F 27.7 °F 78% 29.89 in 10.0 mi NW 28.8 mph 36.8 mph N/A   Overcast
7:35 PM 33.3 °F 20.3 °F 27.1 °F 78% 29.89 in 10.0 mi NW 25.3 mph 36.8 mph N/A   Overcast
7:55 PM 32.9 °F 20.1 °F 27.9 °F 82% 29.90 in 10.0 mi WNW 24.2 mph 34.5 mph N/A   Overcast
8:15 PM 32.5 °F 19.9 °F 27.3 °F 81% 29.90 in 10.0 mi WNW 23.0 mph 31.1 mph N/A   Overcast
8:35 PM 32.5 °F 20.5 °F 27.3 °F 81% 29.91 in 10.0 mi WNW 20.7 mph 35.7 mph N/A   Overcast
10:35 PM 32.9 °F 21.3 °F 27.5 °F 81% 29.92 in 10.0 mi WNW 19.6 mph 24.2 mph N/A   Overcast
10:55 PM 32.5 °F 21.9 °F 27.3 °F 81% 29.91 in 10.0 mi WNW 16.1 mph 26.5 mph N/A   Overcast
11:15 PM 32.9 °F 21.3 °F 27.3 °F 80% 29.91 in 10.0 mi WNW 19.6 mph 26.5 mph N/A   Overcast
11:35 PM 32.5 °F 20.8 °F 27.3 °F 81% 29.90 in 10.0 mi WNW 19.6 mph 24.2 mph N/A   Overcast
11:55 PM 32.4 °F 21.3 °F 27.1 °F 81% 29.89 in 10.0 mi WNW 17.3 mph 24.2 mph N/A   Mostly Cloudy